User: anonymous   Login
Location: Baumgartsau
(48.4586°N, 14.0864°E)
Time: 08:53:43
(UTC+00:00)
Language:

Cosmos 1802 Rocket - Orbit

View from above orbital plane
View from above orbital plane
View from above satellite
View from above satellite

Ground track
Ground track

The orbit data is extracted from the following two-line orbital elements,

1 17160U 86093B   21209.93519889  .00000098  00000-0  87823-4 0  9996
2 17160  82.9272  29.4603 0037524 281.1619 189.1436 13.74646962739054
Epoch (UTC): 28 July 2021 22:26:41
Eccentricity: 0.0037524
inclination: 82.9272°
perigee height: 955 km
apogee height: 1010 km
right ascension of ascending node: 29.4603°
argument of perigee: 281.1619°
revolutions per day: 13.74646962
mean anomaly at epoch: 189.1436°
orbit number at epoch: 73905

The dashed part of the orbit path shows where the satellite is in the earth's shadow,  

DLR